TimeCDT,TemperatureF,Dew PointF,Humidity,Sea Level PressureIn,VisibilityMPH,Wind Direction,Wind SpeedMPH,Gust SpeedMPH,PrecipitationIn,Events,Conditions,WindDirDegrees,DateUTC
12:53 AM,77.0,73.0,88,29.96,10.0,ESE,5.8,-,0.01,Rain,Light Rain,120,2013-07-27 05:53:00
1:33 AM,75.2,73.4,94,29.97,2.5,WSW,10.4,18.4,0.12,Rain-Thunderstorm,Rain,250,2013-07-27 06:33:00
1:36 AM,75.2,73.4,94,29.97,0.8,WSW,12.7,25.3,0.42,Rain-Thunderstorm,Heavy Rain,250,2013-07-27 06:36:00
1:46 AM,73.4,73.4,100,29.98,0.2,Variable,5.8,18.4,1.15,Fog-Rain-Thunderstorm,Heavy Rain,0,2013-07-27 06:46:00
1:53 AM,73.9,72.0,93,29.99,0.5,WNW,5.8,-,1.35,Fog-Rain-Thunderstorm,Heavy Rain,300,2013-07-27 06:53:00
1:59 AM,73.4,71.6,94,29.97,1.2,Variable,4.6,-,0.04,Rain-Thunderstorm,Heavy Rain,0,2013-07-27 06:59:00
2:05 AM,73.4,71.6,94,29.97,3.0,NNW,3.5,-,0.06,Rain-Thunderstorm,Heavy Rain,340,2013-07-27 07:05:00
2:11 AM,73.4,71.6,94,29.97,2.5,Calm,Calm,-,0.11,Rain-Thunderstorm,Heavy Rain,0,2013-07-27 07:11:00
2:17 AM,71.6,71.6,100,29.98,0.8,WNW,5.8,-,0.27,Rain-Thunderstorm,Heavy Rain,300,2013-07-27 07:17:00
2:30 AM,71.6,71.6,100,29.96,1.0,ENE,3.5,-,0.49,Rain-Thunderstorm,Heavy Rain,60,2013-07-27 07:30:00
2:39 AM,71.6,71.6,100,29.97,1.2,Calm,Calm,-,0.61,Rain,Heavy Rain,0,2013-07-27 07:39:00
2:41 AM,71.6,71.6,100,29.97,1.2,Calm,Calm,-,0.63,Rain-Thunderstorm,Heavy Thunderstorms and Rain,0,2013-07-27 07:41:00
2:49 AM,71.6,71.6,100,29.96,1.5,Calm,Calm,-,0.74,Rain-Thunderstorm,Heavy Thunderstorms and Rain,0,2013-07-27 07:49:00
2:53 AM,72.0,71.1,97,29.98,1.0,Calm,Calm,-,0.80,Rain-Thunderstorm,Heavy Thunderstorms and Rain,0,2013-07-27 07:53:00
3:09 AM,71.6,71.6,100,29.96,1.2,Calm,Calm,-,0.22,Rain,Heavy Rain,0,2013-07-27 08:09:00
3:22 AM,71.6,71.6,100,29.95,0.8,NE,5.8,-,0.51,Rain,Heavy Rain,50,2013-07-27 08:22:00
3:27 AM,71.6,71.6,100,29.95,1.8,East,3.5,-,0.53,Rain,Heavy Rain,100,2013-07-27 08:27:00
3:31 AM,71.6,71.6,100,29.94,3.0,East,4.6,-,0.55,Rain,Rain,90,2013-07-27 08:31:00
3:45 AM,71.6,71.6,100,29.93,5.0,ESE,8.1,-,0.60,Rain-Thunderstorm,Rain,120,2013-07-27 08:45:00
3:53 AM,72.0,71.1,97,29.95,6.0,SE,6.9,-,0.62,Rain-Thunderstorm,Rain,130,2013-07-27 08:53:00
4:00 AM,73.4,71.6,94,29.93,8.0,ESE,6.9,-,0.01,Rain,Light Rain,120,2013-07-27 09:00:00
4:35 AM,73.4,71.6,94,29.92,10.0,East,5.8,-,0.02,Rain,Light Rain,100,2013-07-27 09:35:00
4:53 AM,73.0,72.0,96,29.94,10.0,SE,5.8,-,0.03,Rain,Light Rain,130,2013-07-27 09:53:00
5:35 AM,73.4,71.6,94,29.92,10.0,West,5.8,-,0.01,Rain,Light Rain,280,2013-07-27 10:35:00
5:53 AM,73.9,72.0,93,29.94,10.0,East,3.5,-,0.01,Rain,Light Rain,100,2013-07-27 10:53:00
6:53 AM,73.9,73.0,97,29.94,10.0,East,5.8,-,0.00,,Overcast,100,2013-07-27 11:53:00
7:27 AM,73.4,73.4,100,29.93,1.5,Calm,Calm,-,0.04,Rain,Heavy Rain,0,2013-07-27 12:27:00
7:39 AM,73.4,73.4,100,29.93,3.0,Calm,Calm,-,0.06,Rain,Rain,0,2013-07-27 12:39:00
7:46 AM,73.4,73.4,100,29.93,4.0,Calm,Calm,-,0.06,Rain,Light Rain,0,2013-07-27 12:46:00
7:53 AM,73.9,73.0,97,29.94,4.0,Variable,4.6,-,0.06,Rain,Light Rain,0,2013-07-27 12:53:00
7:58 AM,73.4,71.6,94,29.92,8.0,Variable,3.5,-,0.00,Rain,Light Rain,0,2013-07-27 12:58:00
8:53 AM,73.9,71.1,91,29.93,5.0,SE,4.6,-,0.02,Rain,Light Rain,130,2013-07-27 13:53:00
9:04 AM,73.4,71.6,94,29.91,10.0,ESE,3.5,-,0.00,Rain,Light Rain,120,2013-07-27 14:04:00
9:20 AM,75.2,71.6,89,29.91,10.0,ESE,3.5,-,0.00,,Overcast,120,2013-07-27 14:20:00
9:50 AM,75.2,73.4,94,29.91,4.0,SE,5.8,-,0.00,Rain,Light Rain,140,2013-07-27 14:50:00
9:53 AM,75.9,73.0,91,29.93,6.0,SE,6.9,-,0.00,Rain,Light Rain,140,2013-07-27 14:53:00
10:14 AM,75.2,71.6,89,29.92,2.5,SE,8.1,-,0.01,Rain,Rain,140,2013-07-27 15:14:00
10:22 AM,73.4,71.6,94,29.92,1.2,SE,8.1,-,0.02,Rain,Rain,130,2013-07-27 15:22:00
10:32 AM,75.2,73.4,94,29.92,2.0,ESE,6.9,-,0.03,Rain,Light Rain,120,2013-07-27 15:32:00
10:45 AM,75.2,73.4,94,29.92,3.0,SE,6.9,-,0.03,Rain,Light Rain,130,2013-07-27 15:45:00
10:53 AM,75.0,73.0,94,29.94,3.0,ESE,5.8,-,0.03,Rain,Light Rain,120,2013-07-27 15:53:00
11:00 AM,75.2,73.4,94,29.92,2.0,ESE,8.1,-,0.00,Rain,Light Rain,110,2013-07-27 16:00:00
11:17 AM,73.4,73.4,100,29.92,1.8,East,5.8,-,0.01,Rain,Light Rain,100,2013-07-27 16:17:00
11:36 AM,75.2,73.4,94,29.91,1.8,East,4.6,-,0.02,Rain,Light Rain,80,2013-07-27 16:36:00
11:44 AM,75.2,73.4,94,29.91,3.0,East,6.9,-,0.02,Rain,Light Rain,90,2013-07-27 16:44:00
11:53 AM,75.9,73.9,94,29.93,4.0,East,5.8,-,0.02,Rain,Light Rain,90,2013-07-27 16:53:00
12:53 PM,79.0,75.0,88,29.93,10.0,ENE,4.6,-,0.00,,Overcast,60,2013-07-27 17:53:00
1:01 PM,80.6,75.2,84,29.91,10.0,Calm,Calm,-,N/A,,Overcast,0,2013-07-27 18:01:00
1:18 PM,78.8,73.4,83,29.90,10.0,Variable,3.5,-,N/A,,Overcast,0,2013-07-27 18:18:00
1:35 PM,78.8,73.4,83,29.91,8.0,NNE,6.9,-,0.00,Rain,Light Rain,30,2013-07-27 18:35:00
1:53 PM,78.1,73.9,87,29.93,7.0,North,6.9,-,0.00,Rain,Light Rain,350,2013-07-27 18:53:00
2:04 PM,75.2,73.4,94,29.91,7.0,North,8.1,-,0.00,Rain,Light Rain,360,2013-07-27 19:04:00
2:53 PM,80.1,73.9,81,29.92,10.0,North,9.2,-,0.00,,Overcast,10,2013-07-27 19:53:00
3:28 PM,80.6,73.4,79,29.89,10.0,North,8.1,-,N/A,,Overcast,10,2013-07-27 20:28:00
3:39 PM,82.4,73.4,74,29.89,10.0,NNE,9.2,-,N/A,,Overcast,20,2013-07-27 20:39:00
3:53 PM,82.9,73.9,74,29.91,10.0,NNE,9.2,-,N/A,,Mostly Cloudy,30,2013-07-27 20:53:00
4:23 PM,84.2,73.4,70,29.89,10.0,NNE,9.2,-,N/A,,Mostly Cloudy,30,2013-07-27 21:23:00
4:53 PM,82.9,73.0,72,29.91,10.0,NE,6.9,-,N/A,,Partly Cloudy,40,2013-07-27 21:53:00
5:53 PM,84.0,73.0,69,29.91,10.0,North,8.1,-,N/A,,Mostly Cloudy,360,2013-07-27 22:53:00
6:53 PM,81.0,73.0,77,29.92,10.0,North,5.8,-,N/A,,Overcast,350,2013-07-27 23:53:00
7:53 PM,79.0,73.0,82,29.92,10.0,NNW,3.5,-,N/A,,Partly Cloudy,340,2013-07-28 00:53:00
8:53 PM,75.9,73.0,91,29.93,10.0,WNW,3.5,-,N/A,,Scattered Clouds,300,2013-07-28 01:53:00
9:53 PM,75.0,73.0,94,29.94,10.0,NNW,3.5,-,N/A,,Mostly Cloudy,340,2013-07-28 02:53:00
10:53 PM,75.9,72.0,87,29.95,10.0,North,6.9,-,N/A,,Overcast,350,2013-07-28 03:53:00
11:53 PM,73.9,70.0,87,29.94,10.0,North,4.6,-,N/A,,Clear,360,2013-07-28 04:53:00